Regional Weather Roundup
Issued by NWS

Home | Current Version | Previous Version | Text Only | Print | Product List | Glossary On
Versions: 1 2 3 4 5 6 7 8 9 10 11 12 13 14 15 16 17 18 19 20 21 22 23 24 25 26 27 28 29 30 31 32 33 34 35 36 37 38 39 40 41 42 43 44 45 46 47 48 49 50
000
ASUS43 KLOT 020010
RWRIL

ILLINOIS REGIONAL WEATHER ROUNDUP
NATIONAL WEATHER SERVICE CHICAGO/ROMEOVILLE IL
600 PM CST SUN FEB 01 2015

NOTE: "FAIR" INDICATES FEW OR NO CLOUDS BELOW 12,000 FEET WITH NO
SIGNIFICANT WEATHER AND/OR OBSTRUCTIONS TO VISIBILITY.

* THESE STATIONS ARE NOT UNDER NWS QUALITY CONTROL. THEY ALSO MAY NOT
  REPORT WEATHER SUCH AS PRECIPITATION OR FOG.

ILZ001-002-007-009-015-016-024-020100-
NORTHWEST ILLINOIS

CITY           SKY/WX    TMP DP  RH WIND       PRES   REMARKS
MOLINE         LGT SNOW  17  12  80 N18G28    29.89R VSB 1   WCI   1
6HR MIN TEMP:  17; 6HR MAX TEMP:  27; 6HR PCP:  1.01;

STERLING*        N/A    N/A N/A N/A MISG        N/A
SAVANNA*       LGT SNOW  16  11  82 N18G24    29.91R WCI  -1
$$

ILZ003-004-008-010-011-017-018-020100-
NORTH CENTRAL ILLINOIS

CITY           SKY/WX    TMP DP  RH WIND       PRES   REMARKS
ROCKFORD       SNOW      14   9  80 N28G39    29.88R VSB 1/2 WCI  -6
6HR MIN TEMP:  14; 6HR MAX TEMP:  24; 6HR PCP:  0.05;

FREEPORT*      LGT SNOW  12   9  86 N25G33    29.91R WCI  -8
ROCHELLE*      CLOUDY    20  19  93 N22       29.81S WCI   4
DE KALB*       LGT SNOW  19  17  91 N26G33    29.79R VSB 3/4 WCI   1
PERU*          CLOUDY    23  22  96 NE16      29.79R WCI  10
$$

ILZ005-006-012>014-019>023-020100-
NORTHEAST ILLINOIS

CITY           SKY/WX    TMP DP  RH WIND       PRES   REMARKS
CHICAGO-OHARE  SNOW      21  19  92 NE20G32   29.79R VSB 1/2 WCI   6
6HR MIN TEMP:  21; 6HR MAX TEMP:  26; 6HR PCP:  0.23;

CHICAGO-MIDWAY LGT SNOW  24  20  84 NE23G36   29.77R VSB 3/4 WCI   9
6HR MIN TEMP:  23; 6HR MAX TEMP:  30; 6HR PCP:  0.06;

AURORA         HVY SNOW  23  18  81 N23       29.77R VSB 1/4 WCI   7
6HR MIN TEMP:  23; 6HR MAX TEMP:  30; 6HR PCP: TRACE;

LANSING*       LGT SNOW  23  20  91 NE12G18   29.73R WCI  11
JOLIET*        SNOW      23  20  89 N12       29.74R VSB 1/2 WCI  11
WAUKEGAN       SNOW      21  18  88 NE22G31   29.84R VSB 1/4 WCI   5
6HR MIN TEMP:  21; 6HR MAX TEMP:  23; 6HR PCP: TRACE;

DUPAGE AIRPORT SNOW      22  19  89 NE21G31   29.77R VSB 1/2 WCI   6
6HR MIN TEMP:  22; 6HR MAX TEMP:  28; 6HR PCP:  0.01;

KANKAKEE*      LGT SNOW  25  23  91 N21G29    29.68R WCI  11
WHEELING       FOG       22  19  89 NE16G26   29.83R VSB 3/4 WCI   8
6HR MIN TEMP:  22; 6HR MAX TEMP:  26; 6HR PCP: TRACE;

MORRIS*        LGT SNOW  23  22  95 NE9G17    29.73R VSB 1   WCI  13
ROMEOVILLE*    LGT SNOW  23  20  90 NE17      29.74R VSB 1   WCI   9
NORTHERLY ISL    N/A     23  22  96 NE32        N/A  WCI   5
$$

LMZ740>746-020100-
SOUTHERN LAKE MICHIGAN

STATION/POSITION SKY/WX   TEMP    WIND        PRES    VSBY  WAVE
                          AIR SEA DIR/SP/G                  HT/PER
                          (F)     (DEG/KT/KT) (MB)    (MI)  (FT/S)
WAUKEGAN HARBOR            23      30/ 33/ 40   N/A
HARRISON CRIB              22      40/ 30/ 36   N/A
BURNHAM HARBOR             23      30/ 26/ 31   N/A
CALUMET HARBOR             23      30/ 23/ 28   N/A
MICHIGAN CITY              20      30/ 29/ 31   N/A
$$

ILZ025>027-034>036-040-047-049-050-058-095>099-020100-
WEST-CENTRAL ILLINOIS

CITY           SKY/WX    TMP DP  RH WIND       PRES   REMARKS
QUINCY         MIX PCPN  25  21  85 N24       29.83R FOG     WCI   9
GALESBURG*     LGT SNOW  19  16  91 N25G32    29.83R WCI   1
MACOMB*        LGT SNOW  24  22  91 N22G36    29.84R WCI   9
JACKSONVILLE*  LGT SNOW  31  28  87 N21G26    29.74R WCI  19
PITTSFIELD*    FLURRIES  29  26  86 N20G25    29.79R WCI  17
$$

ILZ028>032-037-038-041>044-048-051>054-059>061-020100-
CENTRAL ILLINOIS

CITY           SKY/WX    TMP DP  RH WIND       PRES   REMARKS
PONTIAC        LGT SNOW  26  25  93 N28       29.70R WCI  11
BLOOMINGTON    LGT SNOW  26  25  96 N17G30    29.68R FOG     WCI  13
DECATUR        LGT SNOW  33  32  96 NW13      29.64R FOG     WCI  24
PEORIA         LGT SNOW  26  20  77 NE16G29   29.75R WCI  14
6HR MIN TEMP:  26; 6HR MAX TEMP:  35; 6HR PCP:  0.10;

LACON*         LGT SNOW  23  19  86 N18G29    29.77R WCI   9
LINCOLN*       LGT SNOW  30  28  90 N20G26    29.70R WCI  17
SPRINGFIELD    LGT SNOW  30  26  85 N23       29.71R FOG     WCI  17
6HR MIN TEMP:  30; 6HR MAX TEMP:  36; 6HR PCP:  0.04;

TAYLORVILLE    LGT SNOW  32  32 100 NW12G17   29.67R WCI  23
$$

ILZ033-039-045-046-055>057-062-063-020100-
EAST-CENTRAL ILLINOIS

CITY           SKY/WX    TMP DP  RH WIND       PRES   REMARKS
CHAMPAIGN      SNOW      33  32  96 W9        29.60S VSB 1/4 WCI  25
DANVILLE*      LGT SNOW  32  32 100 W3        29.56S VSB 1
RANTOUL*       LGT SNOW  34  33  97 N9        29.60R WCI  27
MATTOON        CLOUDY    34  31  88 W13       29.61R WCI  25
PARIS*         CLOUDY    34  34 100 W9        29.60R WCI  27
$$

ILZ079-100>102-020100-
SOUTHWEST ILLINOIS

CITY           SKY/WX    TMP DP  RH WIND       PRES   REMARKS
BELLEVILLE     CLOUDY    38  38  99 W14G20    29.70R WCI  30
CAHOKIA*       CLOUDY    38  35  89 W9        29.72R WCI  31
SPARTA*        CLOUDY    40  37  89 W6        29.70R
$$

ILZ064>066-069>071-074>076-080>082-084>086-088>090-092>094-020100-
SOUTH-CENTRAL ILLINOIS

CITY           SKY/WX    TMP DP  RH WIND       PRES   REMARKS
CARBONDALE     CLOUDY    44  40  85 NW10      29.68R
6HR MIN TEMP:  44; 6HR MAX TEMP:  47; 6HR PCP:  0.03;

CAIRO*         CLOUDY    50  48  94 W7        29.69R
EFFINGHAM*     CLOUDY    36  32  85 W13       29.66R WCI  28
MARION         CLOUDY    45  41  87 NW12      29.69R
MT. VERNON     CLOUDY    41  36  81 W5        29.68R
CENTRALIA*     CLOUDY    39  35  86 W9        29.67R WCI  33
SALEM*         CLOUDY    40  37  86 W10       29.67R
METROPOLIS*    CLOUDY    48  48 100 W5        29.67R
$$

ILZ067-068-072-073-078-083-087-091-020100-
SOUTHEAST ILLINOIS

CITY           SKY/WX    TMP DP  RH WIND       PRES   REMARKS
LAWRENCEVILLE  CLOUDY    41  41 100 W13       29.63R
FLORA*         CLOUDY    39  37  91 W8        29.66R WCI  33
FAIRFIELD*     CLOUDY    41  38  90 W6        29.66R
HARRISBURG*    CLOUDY    44  44  98 NW14      29.68R
ROBINSON*      CLOUDY    39  37  93 W12       29.64R WCI  32
CARMI*         CLOUDY    45  43  94 W15       29.65R
$$

ABBREVIATIONS USED IN REMARKS
   TC - TEMPERATURE IN CELSIUS
  WCI - WIND CHILL INDEX
   HX - HEAT INDEX
  VSB - VISIBILITY
$$



USA.gov is the U.S. government's official web portal to all federal, state and local government web resources and services.